Year,Month,Day,Hour,Minute,Value (Times are PST for temperature in C)
2006,10,04,00,00,7.60
2006,10,04,00,01,7.60
2006,10,04,00,02,7.60
2006,10,04,00,03,7.70
2006,10,04,00,04,7.70
2006,10,04,00,05,7.70
2006,10,04,00,06,7.80
2006,10,04,00,07,7.80
2006,10,04,00,08,7.80
2006,10,04,00,09,7.80
2006,10,04,00,10,7.80
2006,10,04,00,11,7.80
2006,10,04,00,12,7.80
2006,10,04,00,13,7.90
2006,10,04,00,14,7.90
2006,10,04,00,15,7.90
2006,10,04,00,16,7.90
2006,10,04,00,17,8.00
2006,10,04,00,18,8.00
2006,10,04,00,19,8.00
2006,10,04,00,20,8.10
2006,10,04,00,21,8.10
2006,10,04,00,22,8.10
2006,10,04,00,23,8.20
2006,10,04,00,24,8.20
2006,10,04,00,25,8.20
2006,10,04,00,26,8.20
2006,10,04,00,27,8.20
2006,10,04,00,28,8.20
2006,10,04,00,29,8.20
2006,10,04,00,30,8.20
2006,10,04,00,31,8.10
2006,10,04,00,32,8.10
2006,10,04,00,33,8.10
2006,10,04,00,34,8.10
2006,10,04,00,35,8.10
2006,10,04,00,36,8.10
2006,10,04,00,37,8.10
2006,10,04,00,38,8.10
2006,10,04,00,39,8.10
2006,10,04,00,40,8.10
2006,10,04,00,41,8.10
2006,10,04,00,42,8.10
2006,10,04,00,43,8.10
2006,10,04,00,44,8.10
2006,10,04,00,45,8.10
2006,10,04,00,46,8.10
2006,10,04,00,47,8.10
2006,10,04,00,48,8.10
2006,10,04,00,49,8.10
2006,10,04,00,50,8.10
2006,10,04,00,51,8.20
2006,10,04,00,52,8.20
2006,10,04,00,53,8.20
2006,10,04,00,54,8.20
2006,10,04,00,55,8.20
2006,10,04,00,56,8.20
2006,10,04,00,57,8.20
2006,10,04,00,58,8.20
2006,10,04,00,59,8.20
2006,10,04,01,00,8.30
2006,10,04,01,01,8.30
2006,10,04,01,02,8.30
2006,10,04,01,03,8.30
2006,10,04,01,04,8.40
2006,10,04,01,05,8.40
2006,10,04,01,06,8.40
2006,10,04,01,07,8.40
2006,10,04,01,08,8.40
2006,10,04,01,09,8.40
2006,10,04,01,10,8.40
2006,10,04,01,11,8.40
2006,10,04,01,12,8.50
2006,10,04,01,13,8.50
2006,10,04,01,14,8.50
2006,10,04,01,15,8.50
2006,10,04,01,16,8.50
2006,10,04,01,17,8.50
2006,10,04,01,18,8.50
2006,10,04,01,19,8.50
2006,10,04,01,20,8.50
2006,10,04,01,21,8.60
2006,10,04,01,22,8.60
2006,10,04,01,23,8.60
2006,10,04,01,24,8.60
2006,10,04,01,25,8.70
2006,10,04,01,26,8.70
2006,10,04,01,27,8.70
2006,10,04,01,28,8.70
2006,10,04,01,29,8.70
2006,10,04,01,30,8.70
2006,10,04,01,31,8.70
2006,10,04,01,32,8.70
2006,10,04,01,33,8.70
2006,10,04,01,34,8.70
2006,10,04,01,35,8.70
2006,10,04,01,36,8.70
2006,10,04,01,37,8.70
2006,10,04,01,38,8.70
2006,10,04,01,39,8.70
2006,10,04,01,40,8.70
2006,10,04,01,41,8.70
2006,10,04,01,42,8.70
2006,10,04,01,43,8.80
2006,10,04,01,44,8.80
2006,10,04,01,45,8.80
2006,10,04,01,46,8.80
2006,10,04,01,47,8.80
2006,10,04,01,48,8.80
2006,10,04,01,49,8.80
2006,10,04,01,50,8.80
2006,10,04,01,51,8.80
2006,10,04,01,52,8.80
2006,10,04,01,53,8.80
2006,10,04,01,54,8.80
2006,10,04,01,55,8.80
2006,10,04,01,56,8.80
2006,10,04,01,57,8.80
2006,10,04,01,58,8.80
2006,10,04,01,59,8.80
2006,10,04,02,00,8.80
2006,10,04,02,01,8.90
2006,10,04,02,02,8.90
2006,10,04,02,03,8.90
2006,10,04,02,04,8.90
2006,10,04,02,05,8.90
2006,10,04,02,06,8.90
2006,10,04,02,07,8.90
2006,10,04,02,08,8.90
2006,10,04,02,09,8.90
2006,10,04,02,10,8.90
2006,10,04,02,11,8.90
2006,10,04,02,12,8.90
2006,10,04,02,13,8.90
2006,10,04,02,14,8.90
2006,10,04,02,15,8.90
2006,10,04,02,16,8.90
2006,10,04,02,17,8.80
2006,10,04,02,18,8.80
2006,10,04,02,19,8.80
2006,10,04,02,20,8.90
2006,10,04,02,21,8.90
2006,10,04,02,22,8.90
2006,10,04,02,23,8.90
2006,10,04,02,24,8.90
2006,10,04,02,25,8.90
2006,10,04,02,26,8.90
2006,10,04,02,27,8.90
2006,10,04,02,28,8.90
2006,10,04,02,29,8.90
2006,10,04,02,30,8.90
2006,10,04,02,31,8.90
2006,10,04,02,32,8.90
2006,10,04,02,33,8.90
2006,10,04,02,34,8.90
2006,10,04,02,35,8.90
2006,10,04,02,36,9.00
2006,10,04,02,37,9.00
2006,10,04,02,38,9.00
2006,10,04,02,39,9.00
2006,10,04,02,40,9.00
2006,10,04,02,41,9.00
2006,10,04,02,42,9.00
2006,10,04,02,43,9.00
2006,10,04,02,44,9.00
2006,10,04,02,45,9.00
2006,10,04,02,46,9.00
2006,10,04,02,47,9.00
2006,10,04,02,48,9.00
2006,10,04,02,49,9.00
2006,10,04,02,50,9.00
2006,10,04,02,51,9.00
2006,10,04,02,52,9.00
2006,10,04,02,53,9.00
2006,10,04,02,54,9.00
2006,10,04,02,55,9.00
2006,10,04,02,56,9.00
2006,10,04,02,57,9.00
2006,10,04,02,58,9.00
2006,10,04,02,59,9.00
2006,10,04,03,00,9.00
2006,10,04,03,01,9.00
2006,10,04,03,02,9.10
2006,10,04,03,03,9.10
2006,10,04,03,04,9.10
2006,10,04,03,05,9.10
2006,10,04,03,06,9.10
2006,10,04,03,07,9.10
2006,10,04,03,08,9.10
2006,10,04,03,09,9.10
2006,10,04,03,10,9.10
2006,10,04,03,11,9.10
2006,10,04,03,12,9.10
2006,10,04,03,13,9.10
2006,10,04,03,14,9.10
2006,10,04,03,15,9.10
2006,10,04,03,16,9.10
2006,10,04,03,17,9.10
2006,10,04,03,18,9.10
2006,10,04,03,19,9.10
2006,10,04,03,20,9.10
2006,10,04,03,21,9.10
2006,10,04,03,22,9.10
2006,10,04,03,23,9.10
2006,10,04,03,24,9.10
2006,10,04,03,25,9.10
2006,10,04,03,26,9.10
2006,10,04,03,27,9.10
2006,10,04,03,28,9.10
2006,10,04,03,29,9.10
2006,10,04,03,30,9.10
2006,10,04,03,31,9.10
2006,10,04,03,32,9.10
2006,10,04,03,33,9.10
2006,10,04,03,34,9.10
2006,10,04,03,35,9.10
2006,10,04,03,36,9.10
2006,10,04,03,37,9.10
2006,10,04,03,38,9.10
2006,10,04,03,39,9.10
2006,10,04,03,40,9.10
2006,10,04,03,41,9.10
2006,10,04,03,42,9.10
2006,10,04,03,43,9.10
2006,10,04,03,44,9.10
2006,10,04,03,45,9.10
2006,10,04,03,46,9.10
2006,10,04,03,47,9.10
2006,10,04,03,48,9.00
2006,10,04,03,49,9.00
2006,10,04,03,50,9.00
2006,10,04,03,51,9.00
2006,10,04,03,52,9.00
2006,10,04,03,53,9.00
2006,10,04,03,54,9.00
2006,10,04,03,55,9.00
2006,10,04,03,56,9.00
2006,10,04,03,57,9.00
2006,10,04,03,58,9.00
2006,10,04,03,59,9.00
2006,10,04,04,00,9.00
2006,10,04,04,01,9.00
2006,10,04,04,02,9.00
2006,10,04,04,03,9.00
2006,10,04,04,04,9.00
2006,10,04,04,05,9.00
2006,10,04,04,06,9.00
2006,10,04,04,07,9.00
2006,10,04,04,08,9.00
2006,10,04,04,09,9.00
2006,10,04,04,10,9.10
2006,10,04,04,11,9.10
2006,10,04,04,12,9.10
2006,10,04,04,13,9.10
2006,10,04,04,14,9.10
2006,10,04,04,15,9.10
2006,10,04,04,16,9.10
2006,10,04,04,17,9.10
2006,10,04,04,18,9.10
2006,10,04,04,19,9.10
2006,10,04,04,20,9.10
2006,10,04,04,21,9.10
2006,10,04,04,22,9.10
2006,10,04,04,23,9.10
2006,10,04,04,24,9.10
2006,10,04,04,25,9.10
2006,10,04,04,26,9.10
2006,10,04,04,27,9.10
2006,10,04,04,28,9.10
2006,10,04,04,29,9.10
2006,10,04,04,30,9.10
2006,10,04,04,31,9.10
2006,10,04,04,32,9.10
2006,10,04,04,33,9.10
2006,10,04,04,34,9.10
2006,10,04,04,35,9.00
2006,10,04,04,36,9.00
2006,10,04,04,37,9.00
2006,10,04,04,38,9.00
2006,10,04,04,39,9.00
2006,10,04,04,40,9.00
2006,10,04,04,41,9.00
2006,10,04,04,42,9.00
2006,10,04,04,43,9.00
2006,10,04,04,44,9.00
2006,10,04,04,45,8.90
2006,10,04,04,46,8.90
2006,10,04,04,47,8.90
2006,10,04,04,48,8.90
2006,10,04,04,49,8.90
2006,10,04,04,50,8.90
2006,10,04,04,51,8.90
2006,10,04,04,52,8.90
2006,10,04,04,53,8.90
2006,10,04,04,54,8.80
2006,10,04,04,55,8.80
2006,10,04,04,56,8.80
2006,10,04,04,57,8.80
2006,10,04,04,58,8.80
2006,10,04,04,59,8.70
2006,10,04,05,00,8.70
2006,10,04,05,01,8.70
2006,10,04,05,02,8.70
2006,10,04,05,03,8.70
2006,10,04,05,04,8.70
2006,10,04,05,05,8.70
2006,10,04,05,06,8.60
2006,10,04,05,07,8.60
2006,10,04,05,08,8.60
2006,10,04,05,09,8.50
2006,10,04,05,10,8.50
2006,10,04,05,11,8.50
2006,10,04,05,12,8.40
2006,10,04,05,13,8.40
2006,10,04,05,14,8.40
2006,10,04,05,15,8.30
2006,10,04,05,16,8.30
2006,10,04,05,17,8.30
2006,10,04,05,18,8.20
2006,10,04,05,19,8.20
2006,10,04,05,20,8.20
2006,10,04,05,21,8.20
2006,10,04,05,22,8.20
2006,10,04,05,23,8.10
2006,10,04,05,24,8.10
2006,10,04,05,25,8.00
2006,10,04,05,26,8.00
2006,10,04,05,27,8.00
2006,10,04,05,28,7.90
2006,10,04,05,29,7.80
2006,10,04,05,30,7.80
2006,10,04,05,31,7.80
2006,10,04,05,32,7.80
2006,10,04,05,33,7.80
2006,10,04,05,34,7.70
2006,10,04,05,35,7.70
2006,10,04,05,36,7.70
2006,10,04,05,37,7.60
2006,10,04,05,38,7.60
2006,10,04,05,39,7.60
2006,10,04,05,40,7.60
2006,10,04,05,41,7.60
2006,10,04,05,42,7.60
2006,10,04,05,43,7.50
2006,10,04,05,44,7.50
2006,10,04,05,45,7.50
2006,10,04,05,46,7.50
2006,10,04,05,47,7.50
2006,10,04,05,48,7.40
2006,10,04,05,49,7.40
2006,10,04,05,50,7.40
2006,10,04,05,51,7.30
2006,10,04,05,52,7.30
2006,10,04,05,53,7.30
2006,10,04,05,54,7.30
2006,10,04,05,55,7.20
2006,10,04,05,56,7.20
2006,10,04,05,57,7.10
2006,10,04,05,58,7.10
2006,10,04,05,59,7.00
2006,10,04,06,00,7.00
2006,10,04,06,01,6.90
2006,10,04,06,02,6.90
2006,10,04,06,03,6.90
2006,10,04,06,04,6.80
2006,10,04,06,05,6.80
2006,10,04,06,06,6.80
2006,10,04,06,07,6.80
2006,10,04,06,08,6.70
2006,10,04,06,09,6.70
2006,10,04,06,10,6.70
2006,10,04,06,11,6.70
2006,10,04,06,12,6.60
2006,10,04,06,13,6.60
2006,10,04,06,14,6.60
2006,10,04,06,15,6.60
2006,10,04,06,16,6.60
2006,10,04,06,17,6.50
2006,10,04,06,18,6.40
2006,10,04,06,19,6.40
2006,10,04,06,20,6.40
2006,10,04,06,21,6.40
2006,10,04,06,22,6.40
2006,10,04,06,23,6.40
2006,10,04,06,24,6.40
2006,10,04,06,25,6.40
2006,10,04,06,26,6.40
2006,10,04,06,27,6.30
2006,10,04,06,28,6.30
2006,10,04,06,29,6.30
2006,10,04,06,30,6.30
2006,10,04,06,31,6.20
2006,10,04,06,32,6.20
2006,10,04,06,33,6.20
2006,10,04,06,34,6.20
2006,10,04,06,35,6.20
2006,10,04,06,36,6.20
2006,10,04,06,37,6.20
2006,10,04,06,38,6.20
2006,10,04,06,39,6.20
2006,10,04,06,40,6.20
2006,10,04,06,41,6.20
2006,10,04,06,42,6.20
2006,10,04,06,43,6.20
2006,10,04,06,44,6.20
2006,10,04,06,45,6.20
2006,10,04,06,46,6.20
2006,10,04,06,47,6.20
2006,10,04,06,48,6.20
2006,10,04,06,49,6.10
2006,10,04,06,50,6.10
2006,10,04,06,51,6.10
2006,10,04,06,52,6.00
2006,10,04,06,53,6.00
2006,10,04,06,54,6.00
2006,10,04,06,55,6.00
2006,10,04,06,56,6.00
2006,10,04,06,57,6.00
2006,10,04,06,58,6.00
2006,10,04,06,59,6.00
2006,10,04,07,00,6.00
2006,10,04,07,01,6.00
2006,10,04,07,02,6.10
2006,10,04,07,03,6.10
2006,10,04,07,04,6.10
2006,10,04,07,05,6.20
2006,10,04,07,06,6.20
2006,10,04,07,07,6.20
2006,10,04,07,08,6.20
2006,10,04,07,09,6.20
2006,10,04,07,10,6.20
2006,10,04,07,11,6.20
2006,10,04,07,12,6.20
2006,10,04,07,13,6.20
2006,10,04,07,14,6.20
2006,10,04,07,15,6.20
2006,10,04,07,16,6.20
2006,10,04,07,17,6.20
2006,10,04,07,18,6.10
2006,10,04,07,19,6.10
2006,10,04,07,20,6.10
2006,10,04,07,21,6.10
2006,10,04,07,22,6.10
2006,10,04,07,23,6.10
2006,10,04,07,24,6.10
2006,10,04,07,25,6.10
2006,10,04,07,26,6.10
2006,10,04,07,27,6.00
2006,10,04,07,28,6.00
2006,10,04,07,29,6.00
2006,10,04,07,30,6.00
2006,10,04,07,31,6.00
2006,10,04,07,32,6.00
2006,10,04,07,33,6.00
2006,10,04,07,34,6.00
2006,10,04,07,35,6.00
2006,10,04,07,36,6.00
2006,10,04,07,37,6.00
2006,10,04,07,38,6.00
2006,10,04,07,39,6.00
2006,10,04,07,40,6.00
2006,10,04,07,41,5.90
2006,10,04,07,42,5.90
2006,10,04,07,43,5.90
2006,10,04,07,44,5.90
2006,10,04,07,45,5.90
2006,10,04,07,46,5.90
2006,10,04,07,47,5.90
2006,10,04,07,48,6.00
2006,10,04,07,49,6.00
2006,10,04,07,50,6.00
2006,10,04,07,51,6.00
2006,10,04,07,52,6.10
2006,10,04,07,53,6.10
2006,10,04,07,54,6.10
2006,10,04,07,55,6.10
2006,10,04,07,56,6.20
2006,10,04,07,57,6.20
2006,10,04,07,58,6.20
2006,10,04,07,59,6.20
2006,10,04,08,00,6.20
2006,10,04,08,01,6.20
2006,10,04,08,02,6.30
2006,10,04,08,03,6.30
2006,10,04,08,04,6.30
2006,10,04,08,05,6.40
2006,10,04,08,06,6.40
2006,10,04,08,07,6.40
2006,10,04,08,08,6.50
2006,10,04,08,09,6.60
2006,10,04,08,10,6.60
2006,10,04,08,11,6.60
2006,10,04,08,12,6.70
2006,10,04,08,13,6.70
2006,10,04,08,14,6.70
2006,10,04,08,15,6.80
2006,10,04,08,16,6.80
2006,10,04,08,17,6.80
2006,10,04,08,18,6.80
2006,10,04,08,19,6.90
2006,10,04,08,20,7.00
2006,10,04,08,21,7.00
2006,10,04,08,22,7.00
2006,10,04,08,23,7.10
2006,10,04,08,24,7.10
2006,10,04,08,25,7.20
2006,10,04,08,26,7.20
2006,10,04,08,27,7.30
2006,10,04,08,28,7.30
2006,10,04,08,29,7.30
2006,10,04,08,30,7.40
2006,10,04,08,31,7.40
2006,10,04,08,32,7.50
2006,10,04,08,33,7.50
2006,10,04,08,34,7.60
2006,10,04,08,35,7.70
2006,10,04,08,36,7.70
2006,10,04,08,37,7.80
2006,10,04,08,38,7.80
2006,10,04,08,39,8.00
2006,10,04,08,40,8.10
2006,10,04,08,41,8.20
2006,10,04,08,42,8.30
2006,10,04,08,43,8.50
2006,10,04,08,44,8.60
2006,10,04,08,45,8.70
2006,10,04,08,46,8.80
2006,10,04,08,47,8.90
2006,10,04,08,48,9.00
2006,10,04,08,49,9.10
2006,10,04,08,50,9.20
2006,10,04,08,51,9.30
2006,10,04,08,52,9.30
2006,10,04,08,53,9.30
2006,10,04,08,54,9.40
2006,10,04,08,55,9.50
2006,10,04,08,56,9.60
2006,10,04,08,57,9.70
2006,10,04,08,58,9.80
2006,10,04,08,59,9.90
2006,10,04,09,00,10.10
2006,10,04,09,01,10.10
2006,10,04,09,02,10.20
2006,10,04,09,03,10.30
2006,10,04,09,04,10.40
2006,10,04,09,05,10.50
2006,10,04,09,06,10.60
2006,10,04,09,07,10.60
2006,10,04,09,08,10.70
2006,10,04,09,09,10.70
2006,10,04,09,10,10.70
2006,10,04,09,11,10.70
2006,10,04,09,12,10.80
2006,10,04,09,13,10.80
2006,10,04,09,14,11.00
2006,10,04,09,15,11.10
2006,10,04,09,16,11.20
2006,10,04,09,17,11.40
2006,10,04,09,18,11.40
2006,10,04,09,19,11.50
2006,10,04,09,20,11.60
2006,10,04,09,21,11.60
2006,10,04,09,22,11.60
2006,10,04,09,23,11.60
2006,10,04,09,24,11.70
2006,10,04,09,25,11.80
2006,10,04,09,26,11.80
2006,10,04,09,27,11.90
2006,10,04,09,28,12.00
2006,10,04,09,29,12.20
2006,10,04,09,30,12.30
2006,10,04,09,31,12.40
2006,10,04,09,32,12.50
2006,10,04,09,33,12.60
2006,10,04,09,34,12.70
2006,10,04,09,35,12.80
2006,10,04,09,36,12.90
2006,10,04,09,37,12.90
2006,10,04,09,38,13.00
2006,10,04,09,39,13.00
2006,10,04,09,40,13.10
2006,10,04,09,41,13.10
2006,10,04,09,42,13.20
2006,10,04,09,43,13.30
2006,10,04,09,44,13.40
2006,10,04,09,45,13.50
2006,10,04,09,46,13.50
2006,10,04,09,47,13.60
2006,10,04,09,48,13.60
2006,10,04,09,49,13.70
2006,10,04,09,50,13.70
2006,10,04,09,51,13.70
2006,10,04,09,52,13.70
2006,10,04,09,53,13.80
2006,10,04,09,54,13.90
2006,10,04,09,55,14.00
2006,10,04,09,56,14.00
2006,10,04,09,57,14.10
2006,10,04,09,58,14.10
2006,10,04,09,59,14.10
2006,10,04,10,00,14.20
2006,10,04,10,01,14.20
2006,10,04,10,02,14.20
2006,10,04,10,03,14.20
2006,10,04,10,04,14.20
2006,10,04,10,05,14.20
2006,10,04,10,06,14.20
2006,10,04,10,07,14.30
2006,10,04,10,08,14.30
2006,10,04,10,09,14.30
2006,10,04,10,10,14.40
2006,10,04,10,11,14.50
2006,10,04,10,12,14.60
2006,10,04,10,13,14.70
2006,10,04,10,14,14.80
2006,10,04,10,15,14.80
2006,10,04,10,16,14.80
2006,10,04,10,17,14.90
2006,10,04,10,18,15.00
2006,10,04,10,19,15.00
2006,10,04,10,20,15.10
2006,10,04,10,21,15.10
2006,10,04,10,22,15.20
2006,10,04,10,23,15.20
2006,10,04,10,24,15.30
2006,10,04,10,25,15.30
2006,10,04,10,26,15.30
2006,10,04,10,27,15.40
2006,10,04,10,28,15.40
2006,10,04,10,29,15.50
2006,10,04,10,30,15.50
2006,10,04,10,31,15.50
2006,10,04,10,32,15.50
2006,10,04,10,33,15.50
2006,10,04,10,34,15.50
2006,10,04,10,35,15.50
2006,10,04,10,36,15.60
2006,10,04,10,37,15.60
2006,10,04,10,38,15.60
2006,10,04,10,39,15.60
2006,10,04,10,40,15.70
2006,10,04,10,41,15.70
2006,10,04,10,42,15.70
2006,10,04,10,43,15.70
2006,10,04,10,44,15.80
2006,10,04,10,45,15.80
2006,10,04,10,46,15.80
2006,10,04,10,47,15.80
2006,10,04,10,48,15.90
2006,10,04,10,49,15.90
2006,10,04,10,50,15.90
2006,10,04,10,51,15.90
2006,10,04,10,52,16.10
2006,10,04,10,53,16.10
2006,10,04,10,54,16.10
2006,10,04,10,55,16.20
2006,10,04,10,56,16.30
2006,10,04,10,57,16.40
2006,10,04,10,58,16.50
2006,10,04,10,59,16.60
2006,10,04,11,00,16.70
2006,10,04,11,01,16.80
2006,10,04,11,02,16.90
2006,10,04,11,03,16.90
2006,10,04,11,04,17.00
2006,10,04,11,05,17.10
2006,10,04,11,06,17.20
2006,10,04,11,07,17.30
2006,10,04,11,08,17.40
2006,10,04,11,09,17.50
2006,10,04,11,10,17.50
2006,10,04,11,11,17.50
2006,10,04,11,12,17.60
2006,10,04,11,13,17.60
2006,10,04,11,14,17.70
2006,10,04,11,15,17.70
2006,10,04,11,16,17.80
2006,10,04,11,17,17.90
2006,10,04,11,18,17.90
2006,10,04,11,19,17.90
2006,10,04,11,20,17.90
2006,10,04,11,21,17.90
2006,10,04,11,22,18.00
2006,10,04,11,23,18.10
2006,10,04,11,24,18.10
2006,10,04,11,25,18.20
2006,10,04,11,26,18.20
2006,10,04,11,27,18.20
2006,10,04,11,28,18.20
2006,10,04,11,29,18.20
2006,10,04,11,30,18.20
2006,10,04,11,31,18.20
2006,10,04,11,32,18.30
2006,10,04,11,33,18.40
2006,10,04,11,34,18.50
2006,10,04,11,35,18.50
2006,10,04,11,36,18.60
2006,10,04,11,37,18.60
2006,10,04,11,38,18.70
2006,10,04,11,39,18.70
2006,10,04,11,40,18.70
2006,10,04,11,41,18.80
2006,10,04,11,42,18.80
2006,10,04,11,43,18.80
2006,10,04,11,44,18.80
2006,10,04,11,45,18.80
2006,10,04,11,46,18.90
2006,10,04,11,47,18.90
2006,10,04,11,48,18.90
2006,10,04,11,49,18.90
2006,10,04,11,50,18.90
2006,10,04,11,51,18.90
2006,10,04,11,52,18.90
2006,10,04,11,53,18.90
2006,10,04,11,54,18.90
2006,10,04,11,55,18.90
2006,10,04,11,56,18.90
2006,10,04,11,57,19.10
2006,10,04,11,58,19.10
2006,10,04,11,59,19.10
2006,10,04,12,00,19.10
2006,10,04,12,01,19.10
2006,10,04,12,02,19.20
2006,10,04,12,03,19.20
2006,10,04,12,04,19.30
2006,10,04,12,05,19.30
2006,10,04,12,06,19.30
2006,10,04,12,07,19.30
2006,10,04,12,08,19.30
2006,10,04,12,09,19.30
2006,10,04,12,10,19.40
2006,10,04,12,11,19.40
2006,10,04,12,12,19.40
2006,10,04,12,13,19.40
2006,10,04,12,14,19.40
2006,10,04,12,15,19.50
2006,10,04,12,16,19.40
2006,10,04,12,17,19.40
2006,10,04,12,18,19.40
2006,10,04,12,19,19.50
2006,10,04,12,20,19.50
2006,10,04,12,21,19.50
2006,10,04,12,22,19.60
2006,10,04,12,23,19.70
2006,10,04,12,24,19.80
2006,10,04,12,25,19.80
2006,10,04,12,26,19.90
2006,10,04,12,27,19.90
2006,10,04,12,28,19.90
2006,10,04,12,29,19.90
2006,10,04,12,30,19.90
2006,10,04,12,31,19.90
2006,10,04,12,32,19.90
2006,10,04,12,33,19.80
2006,10,04,12,34,19.80
2006,10,04,12,35,19.80
2006,10,04,12,36,19.80
2006,10,04,12,37,19.90
2006,10,04,12,38,19.90
2006,10,04,12,39,19.90
2006,10,04,12,40,20.00
2006,10,04,12,41,19.90
2006,10,04,12,42,19.90
2006,10,04,12,43,19.90
2006,10,04,12,44,19.90
2006,10,04,12,45,19.90
2006,10,04,12,46,19.90
2006,10,04,12,47,19.90
2006,10,04,12,48,19.90
2006,10,04,12,49,19.90
2006,10,04,12,50,19.90
2006,10,04,12,51,19.90
2006,10,04,12,52,19.90
2006,10,04,12,53,19.90
2006,10,04,12,54,19.90
2006,10,04,12,55,19.90
2006,10,04,12,56,20.00
2006,10,04,12,57,20.10
2006,10,04,12,58,20.10
2006,10,04,12,59,20.10
2006,10,04,13,00,20.10
2006,10,04,13,01,20.10
2006,10,04,13,02,20.10
2006,10,04,13,03,20.10
2006,10,04,13,04,20.00
2006,10,04,13,05,19.90
2006,10,04,13,06,19.90
2006,10,04,13,07,19.90
2006,10,04,13,08,19.90
2006,10,04,13,09,19.90
2006,10,04,13,10,19.90
2006,10,04,13,11,20.00
2006,10,04,13,12,20.10
2006,10,04,13,13,20.20
2006,10,04,13,14,20.20
2006,10,04,13,15,20.20
2006,10,04,13,16,20.20
2006,10,04,13,17,20.20
2006,10,04,13,18,20.20
2006,10,04,13,19,20.20
2006,10,04,13,20,20.20
2006,10,04,13,21,20.20
2006,10,04,13,22,20.20
2006,10,04,13,23,20.20
2006,10,04,13,24,20.20
2006,10,04,13,25,20.20
2006,10,04,13,26,20.20
2006,10,04,13,27,20.20
2006,10,04,13,28,20.20
2006,10,04,13,29,20.20
2006,10,04,13,30,20.30
2006,10,04,13,31,20.30
2006,10,04,13,32,20.30
2006,10,04,13,33,20.40
2006,10,04,13,34,20.40
2006,10,04,13,35,20.40
2006,10,04,13,36,20.40
2006,10,04,13,37,20.50
2006,10,04,13,38,20.50
2006,10,04,13,39,20.50
2006,10,04,13,40,20.40
2006,10,04,13,41,20.40
2006,10,04,13,42,20.50
2006,10,04,13,43,20.50
2006,10,04,13,44,20.50
2006,10,04,13,45,20.70
2006,10,04,13,46,20.70
2006,10,04,13,47,20.70
2006,10,04,13,48,20.70
2006,10,04,13,49,20.80
2006,10,04,13,50,20.80
2006,10,04,13,51,20.90
2006,10,04,13,52,21.00
2006,10,04,13,53,20.80
2006,10,04,13,54,20.70
2006,10,04,13,55,20.60
2006,10,04,13,56,20.50
2006,10,04,13,57,20.40
2006,10,04,13,58,20.40
2006,10,04,13,59,20.40
2006,10,04,14,00,20.40
2006,10,04,14,01,20.40
2006,10,04,14,02,20.30
2006,10,04,14,03,20.20
2006,10,04,14,04,20.10
2006,10,04,14,05,20.10
2006,10,04,14,06,20.10
2006,10,04,14,07,20.00
2006,10,04,14,08,19.80
2006,10,04,14,09,19.70
2006,10,04,14,10,19.70
2006,10,04,14,11,19.70
2006,10,04,14,12,19.60
2006,10,04,14,13,19.60
2006,10,04,14,14,19.50
2006,10,04,14,15,19.30
2006,10,04,14,16,19.30
2006,10,04,14,17,19.20
2006,10,04,14,18,19.20
2006,10,04,14,19,19.20
2006,10,04,14,20,19.30
2006,10,04,14,21,19.30
2006,10,04,14,22,19.40
2006,10,04,14,23,19.40
2006,10,04,14,24,19.50
2006,10,04,14,25,19.60
2006,10,04,14,26,19.70
2006,10,04,14,27,19.80
2006,10,04,14,28,19.70
2006,10,04,14,29,19.60
2006,10,04,14,30,19.60
2006,10,04,14,31,19.40
2006,10,04,14,32,19.30
2006,10,04,14,33,19.20
2006,10,04,14,34,19.10
2006,10,04,14,35,19.10
2006,10,04,14,36,19.10
2006,10,04,14,37,19.10
2006,10,04,14,38,19.20
2006,10,04,14,39,19.30
2006,10,04,14,40,19.30
2006,10,04,14,41,19.30
2006,10,04,14,42,19.30
2006,10,04,14,43,19.40
2006,10,04,14,44,19.40
2006,10,04,14,45,19.40
2006,10,04,14,46,19.50
2006,10,04,14,47,19.50
2006,10,04,14,48,19.60
2006,10,04,14,49,19.50
2006,10,04,14,50,19.50
2006,10,04,14,51,19.50
2006,10,04,14,52,19.50
2006,10,04,14,53,19.50
2006,10,04,14,54,19.60
2006,10,04,14,55,19.60
2006,10,04,14,56,19.70
2006,10,04,14,57,19.70
2006,10,04,14,58,19.80
2006,10,04,14,59,19.70
2006,10,04,15,00,19.60
2006,10,04,15,01,19.60
2006,10,04,15,02,19.60
2006,10,04,15,03,19.60
2006,10,04,15,04,19.70
2006,10,04,15,05,19.80
2006,10,04,15,06,19.80
2006,10,04,15,07,19.80
2006,10,04,15,08,19.80
2006,10,04,15,09,19.90
2006,10,04,15,10,19.90
2006,10,04,15,11,20.00
2006,10,04,15,12,20.10
2006,10,04,15,13,20.10
2006,10,04,15,14,20.10
2006,10,04,15,15,20.00
2006,10,04,15,16,19.90
2006,10,04,15,17,19.90
2006,10,04,15,18,19.90
2006,10,04,15,19,19.90
2006,10,04,15,20,19.90
2006,10,04,15,21,19.90
2006,10,04,15,22,19.80
2006,10,04,15,23,19.80
2006,10,04,15,24,19.80
2006,10,04,15,25,19.80
2006,10,04,15,26,19.80
2006,10,04,15,27,19.80
2006,10,04,15,28,19.80
2006,10,04,15,29,19.90
2006,10,04,15,30,19.80
2006,10,04,15,31,19.80
2006,10,04,15,32,19.90
2006,10,04,15,33,19.90
2006,10,04,15,34,19.90
2006,10,04,15,35,19.90
2006,10,04,15,36,19.90
2006,10,04,15,37,19.90
2006,10,04,15,38,19.90
2006,10,04,15,39,19.90
2006,10,04,15,40,19.90
2006,10,04,15,41,19.80
2006,10,04,15,42,19.90
2006,10,04,15,43,19.90
2006,10,04,15,44,19.90
2006,10,04,15,45,19.90
2006,10,04,15,46,19.90
2006,10,04,15,47,19.90
2006,10,04,15,48,19.90
2006,10,04,15,49,19.80
2006,10,04,15,50,19.80
2006,10,04,15,51,19.90
2006,10,04,15,52,19.90
2006,10,04,15,53,19.90
2006,10,04,15,54,19.90
2006,10,04,15,55,19.90
2006,10,04,15,56,19.90
2006,10,04,15,57,19.90
2006,10,04,15,58,19.90
2006,10,04,15,59,19.90
2006,10,04,16,00,20.00
2006,10,04,16,01,20.10
2006,10,04,16,02,20.10
2006,10,04,16,03,20.00
2006,10,04,16,04,19.90
2006,10,04,16,05,19.90
2006,10,04,16,06,19.80
2006,10,04,16,07,19.80
2006,10,04,16,08,19.80
2006,10,04,16,09,19.70
2006,10,04,16,10,19.70
2006,10,04,16,11,19.70
2006,10,04,16,12,19.60
2006,10,04,16,13,19.60
2006,10,04,16,14,19.60
2006,10,04,16,15,19.70
2006,10,04,16,16,19.70
2006,10,04,16,17,19.80
2006,10,04,16,18,19.80
2006,10,04,16,19,19.80
2006,10,04,16,20,19.90
2006,10,04,16,21,19.90
2006,10,04,16,22,19.90
2006,10,04,16,23,20.00
2006,10,04,16,24,20.10
2006,10,04,16,25,20.10
2006,10,04,16,26,20.10
2006,10,04,16,27,20.00
2006,10,04,16,28,19.90
2006,10,04,16,29,20.00
2006,10,04,16,30,20.10
2006,10,04,16,31,20.10
2006,10,04,16,32,20.10
2006,10,04,16,33,20.10
2006,10,04,16,34,20.10
2006,10,04,16,35,20.10
2006,10,04,16,36,20.10
2006,10,04,16,37,20.10
2006,10,04,16,38,20.10
2006,10,04,16,39,20.10
2006,10,04,16,40,20.10
2006,10,04,16,41,20.10
2006,10,04,16,42,20.10
2006,10,04,16,43,20.10
2006,10,04,16,44,20.10
2006,10,04,16,45,19.90
2006,10,04,16,46,19.90
2006,10,04,16,47,19.90
2006,10,04,16,48,19.90
2006,10,04,16,49,19.90
2006,10,04,16,50,19.90
2006,10,04,16,51,19.90
2006,10,04,16,52,19.90
2006,10,04,16,53,20.00
2006,10,04,16,54,20.10
2006,10,04,16,55,20.00
2006,10,04,16,56,19.90
2006,10,04,16,57,19.90
2006,10,04,16,58,19.90
2006,10,04,16,59,19.90
2006,10,04,17,00,19.90
2006,10,04,17,01,19.90
2006,10,04,17,02,19.90
2006,10,04,17,03,19.90
2006,10,04,17,04,19.90
2006,10,04,17,05,19.90
2006,10,04,17,06,19.90
2006,10,04,17,07,19.90
2006,10,04,17,08,19.90
2006,10,04,17,09,19.90
2006,10,04,17,10,19.90
2006,10,04,17,11,19.90
2006,10,04,17,12,19.90
2006,10,04,17,13,19.90
2006,10,04,17,14,19.90
2006,10,04,17,15,19.90
2006,10,04,17,16,19.90
2006,10,04,17,17,19.90
2006,10,04,17,18,19.90
2006,10,04,17,19,19.90
2006,10,04,17,20,19.90
2006,10,04,17,21,19.90
2006,10,04,17,22,19.90
2006,10,04,17,23,19.90
2006,10,04,17,24,19.90
2006,10,04,17,25,19.90
2006,10,04,17,26,19.90
2006,10,04,17,27,19.90
2006,10,04,17,28,19.90
2006,10,04,17,29,20.00
2006,10,04,17,30,20.10
2006,10,04,17,31,20.10
2006,10,04,17,32,20.20
2006,10,04,17,33,20.20
2006,10,04,17,34,20.20
2006,10,04,17,35,20.20
2006,10,04,17,36,20.20
2006,10,04,17,37,20.20
2006,10,04,17,38,20.20
2006,10,04,17,39,20.20
2006,10,04,17,40,20.20
2006,10,04,17,41,20.20
2006,10,04,17,42,20.10